Regional Weather Roundup
Issued by NWS

Home | Current Version | Previous Version | Text Only | Print | Product List | Glossary On
Versions: 1 2 3 4 5 6 7 8 9 10 11 12 13 14 15 16 17 18 19 20 21 22 23 24 25 26 27 28 29 30 31 32 33 34 35 36 37 38 39 40 41 42 43 44 45 46 47 48 49 50
000
ASUS43 KTOP 192308
RWRKS

WEATHER ROUNDUP FOR KANSAS
NATIONAL WEATHER SERVICE GOODLAND KS
600 PM CDT SUN APR 19 2015

NOTE:  "FAIR" INDICATES FEW OR NO CLOUDS BELOW 12,000 FEET WITH NO
SIGNIFICANT WEATHER AND/OR OBSTRUCTIONS TO VISIBILITY.

KSZ001>006-013>018-027>032-041>047-200000-
NORTHWEST KANSAS

CITY           SKY/WX    TMP DP  RH WIND       PRES   REMARKS
GOODLAND       CLOUDY    48  25  40 N21G28    29.98S
HAYS           PTSUNNY   57  32  38 N21G30    29.88S
HILL CITY      PTSUNNY   55  27  34 N21G32    29.91S
RUSSELL        CLOUDY    56  33  42 N25G33    29.86S
$$

KSZ061>065-074>080-084>089-200000-
SOUTHWEST KANSAS

CITY           SKY/WX    TMP DP  RH WIND       PRES   REMARKS
DODGE CITY     MOSUNNY   55  24  30 N20G35    29.91S
ELKHART          N/A    N/A N/A N/A MISG        N/A
GARDEN CITY    PTSUNNY   54  23  30 N30G40    29.95R
GREAT BEND     PTSUNNY   55  36  47 N22G31    29.87S
LIBERAL        SUNNY     57  28  33 N25G32    29.97R
PRATT          PTSUNNY   52  36  54 N17G29    29.89S
$$

KSZ066>073-081>083-090>101-200000-
SOUTHEAST KANSAS

CITY           SKY/WX    TMP DP  RH WIND       PRES   REMARKS
CHANUTE        CLOUDY    57  51  80 NW21G33   29.69R
COFFEYVILLE    TSTM      55  52  89 NW18G35   29.70R
HUTCHINSON     CLOUDY    53  35  50 N21G28    29.84S
MEDICINE LODGE   N/A     54  36  50 N21G30    29.86R
NEWTON         CLOUDY    52  34  50 N26G36    29.82R
PARSONS        TSTM      57  54  89 NW25G37   29.70R
WICHITA INTL   CLOUDY    53  38  56 N28G39    29.82R
WICHITA JABRA  CLOUDY    52  38  58 NW22G37   29.80R
WICHITA MCCONL PTSUNNY   54  38  56 N23G37    29.80R
WINFIELD       PTSUNNY   56  44  64 N26G37    29.79R
$$

KSZ007>012-019>026-033>040-048>060-102>105-200000-
NORTHEAST KANSAS

CITY           SKY/WX    TMP DP  RH WIND       PRES   REMARKS
CONCORDIA      CLOUDY    55  35  47 NW14G23   29.81F
EMPORIA        CLOUDY    51  40  65 NW26G37   29.76R
LAWRENCE       CLOUDY    53  46  77 NW24G30   29.70R
MANHATTAN      CLOUDY    54  37  52 N9G20     29.78S
MARYSVILLE     CLOUDY    52  37  58 N21       29.76S
OLATHE IND     CLOUDY    54  47  77 NW20G29   29.69R
OLATHE EXE     CLOUDY    54  48  80 NW18G29   29.66R
SALINA         CLOUDY    54  35  48 N23G29    29.83S
TOPEKA BILLARD LGT RAIN  52  46  80 NW16G30   29.73R
TOPEKA FORBES  CLOUDY    52  46  80 NW20G29   29.72R
$$


USA.gov is the U.S. government's official web portal to all federal, state and local government web resources and services.